Theta_e
291 291 291 290 291 292 293 295 296 299 300 300 300 300 300 302 304 305 306 307 308 306 306 310 315 322 320 319 319 317 315 313 313 309 308 307 308 308 308 309 308 307 307
289 290 289 289 290 291 292 295 296 300 300 300 300 301 302 303 305 305 306 307 310 306 307 311 319 321 318 318 319 317 315 314 314 310 308 303 304 305 306 307 306 305 306
290 289 289 288 289 290 291 294 295 298 299 300 301 301 304 307 304 305 305 307 310 309 310 312 320 318 316 317 318 317 314 313 314 314 310 305 302 301 304 303 304 304 303
289 288 288 287 289 291 292 293 295 299 299 300 299 299 301 303 308 310 310 310 308 311 314 319 320 319 321 319 319 318 316 315 312 312 311 309 306 301 297 302 303 302 301
288 288 287 289 290 291 291 292 297 298 298 299 299 299 300 303 309 314 311 307 311 315 320 320 320 320 320 319 319 317 316 316 314 312 308 306 305 304 300 296 297 298 298
287 287 287 289 290 290 291 292 297 296 298 298 298 299 299 301 306 309 310 311 313 315 319 319 319 319 318 318 318 318 317 315 313 311 310 308 304 302 302 298 297 293 294
286 286 284 287 289 290 291 293 295 295 297 297 297 298 298 300 302 306 307 308 308 310 311 314 314 315 316 316 315 314 314 313 310 308 306 307 307 307 304 300 296 293 295
286 285 285 287 288 289 290 291 294 295 296 296 296 297 298 299 301 303 304 305 306 307 310 309 310 309 309 310 308 307 306 306 304 303 303 302 304 306 305 302 298 295 297
285 285 285 286 288 289 290 291 295 294 295 295 295 295 296 297 297 300 302 302 303 304 305 305 304 305 304 304 303 302 301 300 299 297 297 296 296 297 300 303 302 299 294
284 284 285 286 288 288 289 291 296 294 295 295 295 294 294 295 295 295 297 299 301 302 302 302 302 303 303 302 301 299 298 296 296 295 293 292 292 291 291 292 293 295 292
284 284 284 285 287 288 288 290 293 295 294 294 294 294 294 294 294 293 294 294 295 296 298 297 297 297 297 297 295 295 294 293 292 291 290 289 290 288 288 288 288 288 288
284 283 284 285 286 287 288 289 294 294 294 294 294 293 294 294 293 292 292 293 293 294 294 294 294 293 292 293 292 291 291 290 289 288 288 287 288 286 286 285 285 285 285
283 283 283 284 286 286 288 289 292 293 293 293 292 292 291 291 291 291 291 291 291 290 290 289 289 289 289 289 289 288 288 287 287 286 286 285 286 285 285 285 285 285 286
284 283 283 284 285 287 287 288 289 291 292 291 290 289 289 289 288 288 288 288 288 288 288 287 287 287 286 286 286 286 285 285 285 285 284 284 284 283 283 284 283 284 283
284 284 284 284 284 285 286 287 288 289 288 287 287 286 286 286 286 286 285 286 286 286 286 286 286 286 286 286 284 285 284 283 283 283 284 283 283 286 286 283 282 283 282
286 285 285 285 285 286 287 287 287 288 287 286 286 286 285 285 284 284 284 284 284 284 284 284 284 285 286 287 288 285 284 283 283 283 283 284 284 287 288 288 287 285 282
288 286 286 286 286 286 288 288 287 287 287 286 285 285 284 284 283 283 283 283 282 283 283 283 283 283 285 289 288 286 283 283 283 283 283 284 284 283 284 287 287 286 287
289 288 288 287 287 287 288 288 287 287 286 285 284 284 284 283 283 283 282 281 281 281 281 282 283 283 286 289 287 285 283 282 282 282 282 282 282 282 282 282 281 281 282
291 290 290 289 288 287 289 289 286 286 285 285 285 284 284 283 282 282 281 281 281 281 281 282 282 283 284 288 287 284 282 282 281 282 282 282 282 286 286 282 281 280 280
291 290 290 290 288 287 288 289 287 286 286 285 285 284 283 283 282 282 282 282 281 282 281 282 282 280 283 288 287 284 282 281 280 281 282 282 283 287 286 281 280 278 279
291 290 289 289 289 288 288 288 288 287 288 287 284 283 283 283 282 282 281 281 281 281 280 281 280 281 282 285 288 286 282 282 280 280 280 282 286 286 285 283 280 280 280
289 289 288 288 289 287 288 287 287 289 287 285 285 283 281 282 282 281 280 281 281 280 279 279 278 278 281 283 288 288 285 284 281 280 280 281 286 286 285 281 284 284 281
287 286 287 285 287 287 288 287 288 287 286 285 284 282 280 281 280 281 280 280 280 280 279 279 278 277 279 280 287 288 287 286 281 280 282 284 286 286 284 283 283 278 278
286 285 285 284 285 286 287 288 287 287 286 286 284 282 282 280 279 280 281 281 281 280 280 279 278 277 277 278 280 282 284 284 280 283 282 284 284 284 280 276 280 275 273
285 284 284 285 285 285 286 287 285 286 286 286 285 283 283 282 280 281 281 282 282 283 281 282 281 279 278 280 283 283 281 280 281 275 273 276 281 280 278 269 267 268 268
283 282 283 283 284 285 286 284 286 286 286 285 284 284 283 281 282 281 280 285 285 286 287 287 284 282 284 285 285 286 286 285 285 279 280 279 280 278 277 274 272 268 269
Wind_Speed
5 4 0 4 6 6 8 9 8 11 9 8 8 7 7 8 6 6 7 6 6 5 5 4 7 11 11 9 8 6 12 6 9 8 8 8 9 9 6 6 7 8 8
6 4 1 4 6 6 7 9 9 12 10 7 8 5 7 7 6 4 5 5 5 5 5 6 6 13 11 14 9 9 6 4 5 6 5 4 4 7 7 6 7 8 7
8 4 1 4 6 7 8 10 9 11 10 11 9 7 8 5 3 3 3 4 6 5 5 5 10 12 10 13 13 12 12 9 4 10 4 4 4 4 5 8 5 7 7
5 3 0 3 5 6 7 8 9 10 10 11 10 11 7 8 4 3 1 2 4 4 5 7 11 9 6 9 10 11 9 9 11 3 2 4 8 5 5 4 6 8 8
6 5 1 3 4 6 7 7 8 9 11 11 11 9 9 8 7 4 2 2 4 5 5 9 7 7 5 8 9 10 9 6 5 5 3 5 6 6 7 6 6 7 7
6 5 1 3 4 6 7 7 9 9 10 11 12 11 12 12 7 7 6 7 6 3 8 8 7 7 6 7 8 9 9 7 7 5 4 7 4 8 7 7 6 7 4
6 4 2 2 4 6 8 6 8 10 10 11 12 11 11 12 10 7 6 7 6 6 7 9 7 5 6 6 7 7 11 9 8 6 5 4 8 6 10 8 6 4 3
5 5 4 1 3 5 7 7 7 9 10 10 11 10 11 8 7 7 7 6 6 7 7 10 9 11 12 10 10 8 10 11 10 10 6 8 6 8 10 7 9 4 3
7 7 5 2 2 3 5 6 6 8 8 9 8 10 10 12 11 10 7 5 8 7 9 11 12 11 13 12 15 10 11 11 9 9 10 8 5 5 3 4 6 6 4
8 7 5 3 2 3 2 5 5 6 6 8 8 8 9 10 11 11 12 13 11 10 10 11 12 12 12 14 13 12 10 13 8 5 13 8 6 6 4 4 2 3 4
8 8 7 4 3 3 1 3 5 6 7 8 7 9 9 9 12 11 10 10 11 10 11 13 14 13 12 12 13 12 11 14 13 10 11 10 7 6 5 5 4 4 4
8 7 7 6 5 4 2 2 3 6 5 5 7 8 8 8 11 11 12 12 12 11 11 13 14 13 10 9 12 12 10 13 11 9 11 8 6 7 6 4 5 5 4
8 7 6 7 7 6 5 4 2 5 4 5 6 7 8 8 10 10 10 10 12 12 13 12 12 10 9 12 11 11 10 11 10 8 7 7 6 7 5 5 6 5 5
11 10 7 8 7 7 6 6 4 4 5 5 7 7 7 6 6 7 8 9 9 13 11 9 11 10 11 11 10 12 11 10 9 8 8 6 7 7 6 6 6 5 6
11 13 12 10 8 7 6 6 5 5 6 6 6 6 5 5 5 7 7 6 8 7 7 9 10 9 10 7 9 9 9 10 9 8 8 6 7 12 8 4 5 6 4
14 14 13 11 11 11 10 7 6 7 5 7 7 7 6 5 5 5 6 8 8 7 7 8 7 8 5 13 15 12 10 9 10 9 7 7 7 11 14 14 11 7 4
16 16 18 17 15 14 13 12 9 7 7 6 7 7 8 7 4 4 5 5 6 6 6 6 7 7 7 13 14 12 7 7 6 7 7 6 4 6 7 13 14 11 12
14 16 15 14 14 11 12 9 7 8 8 8 7 8 9 8 7 5 4 4 4 5 4 6 6 7 6 12 13 12 6 6 6 5 5 6 6 5 6 6 6 5 5
14 16 18 18 15 15 15 13 11 8 7 9 10 9 10 11 9 9 6 3 4 3 3 4 6 6 6 13 13 9 5 5 5 4 5 5 6 9 10 6 6 4 4
7 11 14 13 14 14 15 15 14 13 13 10 10 10 8 11 11 10 10 6 4 3 3 4 5 6 7 11 12 9 5 6 4 3 4 7 6 10 10 6 6 5 4
7 7 11 15 17 15 17 18 16 17 15 10 8 7 8 9 8 9 5 8 7 8 6 4 3 5 6 8 14 14 5 5 5 5 4 3 10 10 9 7 4 4 5
4 7 11 13 11 14 16 17 19 17 13 11 11 10 7 6 7 8 5 7 9 9 8 7 5 2 4 6 12 14 11 10 6 6 4 4 12 11 10 6 8 8 7
4 4 7 8 10 15 17 18 17 13 13 13 12 11 8 6 6 9 9 7 7 7 7 8 7 6 4 3 12 14 14 13 5 3 7 10 13 13 9 9 9 6 2
4 4 6 7 10 12 15 16 12 15 15 15 14 10 12 10 7 5 6 7 8 7 7 8 7 5 5 6 5 5 7 10 5 8 5 7 8 7 7 3 6 4 4
3 5 7 8 9 9 13 11 10 14 15 14 13 12 10 11 10 9 10 10 9 10 9 9 8 9 9 12 15 13 8 7 7 5 2 1 5 5 4 2 2 3 3
3 4 7 7 8 9 10 8 11 15 15 13 11 11 10 9 9 9 6 13 10 14 15 10 10 5 5 14 21 20 18 17 17 4 6 8 9 9 8 7 6 4 5
Wind_Direction
198 165 234 327 328 335 325 325 319 323 327 327 325 319 301 291 270 255 250 245 240 199 209 231 252 156 154 120 129 126 142 132 125 101 88 65 66 67 69 78 83 77 71
185 192 342 343 326 313 319 322 335 329 327 325 315 294 296 282 269 260 257 257 254 193 210 205 192 134 134 138 167 168 154 110 163 126 116 116 93 61 50 68 78 78 77
190 187 316 326 314 338 333 326 328 321 325 331 321 316 304 292 257 244 239 231 240 188 222 220 179 146 156 161 167 155 164 150 165 164 134 141 118 147 30 47 73 80 77
160 155 263 323 317 329 325 330 326 330 338 337 337 327 326 328 319 282 156 213 194 210 204 184 152 152 135 155 156 154 165 152 173 135 51 75 135 128 128 50 65 69 65
172 162 205 311 315 343 325 329 328 341 351 347 347 335 347 333 330 19 112 158 170 180 145 133 126 141 141 144 153 152 159 152 156 150 138 80 91 89 125 138 112 74 59
169 152 202 328 327 347 337 342 341 356 357 0 355 352 2 345 1 35 52 38 36 96 110 118 126 122 137 150 160 165 156 124 112 115 116 136 139 147 139 130 114 111 60
170 173 212 332 339 360 341 349 348 6 3 11 3 358 7 355 2 36 51 65 52 51 57 77 79 77 88 90 101 124 114 112 112 111 99 92 111 126 123 130 126 119 163
182 185 209 262 319 358 353 352 359 11 10 14 11 359 20 12 6 25 60 52 71 72 78 78 80 82 82 87 86 84 86 97 96 81 89 92 85 124 139 144 144 132 131
186 195 193 220 293 347 7 355 6 18 18 16 18 13 16 29 14 13 47 62 73 72 74 85 87 88 90 89 86 83 90 90 81 88 84 87 73 78 95 138 157 142 142
182 193 192 203 246 282 15 11 12 31 13 35 30 27 22 40 39 29 32 45 43 60 80 82 84 88 91 97 97 91 95 93 86 96 82 80 79 75 64 87 88 75 110
193 189 190 193 196 268 49 31 22 39 29 42 41 44 39 43 60 49 42 53 68 64 68 76 76 75 78 78 88 89 97 96 99 84 91 76 74 83 82 73 72 84 94
190 193 186 178 178 239 189 72 50 66 29 47 56 52 50 58 67 65 53 45 50 57 76 85 84 77 73 95 98 95 89 98 90 84 87 87 85 73 65 68 75 82 73
175 192 193 187 184 207 225 156 122 86 54 42 59 55 44 53 63 70 71 73 74 53 43 48 63 73 80 80 70 78 82 78 76 72 92 85 89 78 74 70 74 66 73
184 185 198 199 185 191 219 182 164 119 91 73 69 60 47 49 61 76 73 71 83 96 95 89 82 64 58 65 70 80 83 79 76 72 71 80 84 97 93 87 78 76 81
195 195 194 201 180 191 206 215 172 147 129 109 94 88 60 54 51 66 59 65 69 69 83 89 80 92 98 102 102 99 93 92 90 72 75 81 89 91 89 110 108 109 106
206 199 194 195 189 190 192 212 188 164 156 139 131 125 96 69 51 68 75 85 76 72 79 75 91 92 92 120 118 121 121 117 114 116 107 97 96 99 102 101 98 93 106
204 199 197 197 194 189 184 195 193 161 160 156 147 143 129 115 90 71 83 84 92 101 91 97 101 93 90 112 109 100 94 100 107 116 121 114 83 73 84 89 82 76 80
202 205 200 196 198 179 179 169 170 177 171 165 169 159 145 140 134 112 104 93 90 99 97 100 96 99 105 116 113 103 99 103 108 119 113 104 117 121 116 108 93 80 75
202 201 198 197 183 177 173 172 169 181 171 186 177 182 163 154 152 145 151 122 119 104 98 106 110 109 112 129 128 117 108 110 102 96 107 124 135 153 144 125 129 119 82
201 190 192 188 180 178 166 172 181 181 194 190 192 178 179 165 165 160 157 148 138 118 109 122 128 128 139 147 147 143 134 127 129 128 146 148 153 159 162 158 156 143 154
231 179 168 183 190 173 169 180 184 193 195 180 166 177 184 175 175 159 156 151 149 141 146 150 171 166 172 171 166 167 158 155 161 170 167 179 168 161 155 155 143 150 143
283 189 181 187 178 172 177 184 193 192 173 168 172 181 182 187 165 160 155 161 157 159 164 164 180 220 207 201 190 188 190 182 172 185 178 176 173 170 164 150 154 153 141
280 216 195 177 172 175 185 188 198 173 170 167 183 179 171 173 170 172 165 159 171 180 179 182 184 187 186 209 207 202 206 203 194 164 182 181 184 180 171 173 170 143 163
253 195 177 191 194 185 192 206 180 170 172 181 182 180 180 178 174 173 178 177 185 189 187 189 196 186 183 194 203 198 199 201 183 183 181 191 193 188 173 201 190 160 181
228 192 200 201 208 190 198 190 166 169 180 184 183 180 189 188 184 200 192 194 202 195 193 208 193 178 200 209 197 189 183 177 175 129 106 155 199 208 200 229 213 195 183
227 210 210 205 202 187 198 177 170 176 179 187 185 186 183 183 192 194 208 225 214 205 215 204 193 213 243 188 195 197 193 184 175 166 195 206 211 217 211 204 207 202 202